NOAA NWS Hourly Roundups by Site

Regional Weather Roundup for Omaha, NE

To Select Another Site Choose from List

Select Site:  

000
ASUS43 KOAX 280710
RWRNE

WEATHER ROUNDUP FOR NEBRASKA
NATIONAL WEATHER SERVICE OMAHA NE
100 AM CST TUE JAN 28 2020

NOTES: SATELLITE DATA IS BEING USED TO AUGMENT CLOUD COVER ABOVE
       12000 FEET.
       "FAIR" INDICATES FEW OR NO CLOUDS BELOW 12,000 FEET WITH NO
       SIGNIFICANT WEATHER AND/OR OBSTRUCTIONS TO VISIBILITY.


NEZ001>004-019>022-054>056-280800-
NEBRASKA PANHANDLE

CITY           SKY/WX    TMP DP  RH WIND       PRES   REMARKS
SCOTTSBLUFF    FAIR      34  32  92 NW13      30.06R WCI  25
ALLIANCE       CLOUDY    31  28  89 N15       30.02R WCI  20
CHADRON        LGT SNOW  32  31  96 NW5       30.07S FOG     WCI  27
GORDON         LGT SNOW  32  30  93 NW10      30.03R WCI  24
KIMBALL        LGT RAIN  32  30  92 NW21G28   30.05R WCI  20
SIDNEY         CLOUDY    33  30  88 NW14      30.02R WCI  23
$$

NEZ057>060-069>072-079>082-280800-
SOUTHWEST NEBRASKA

CITY           SKY/WX    TMP DP  RH WIND       PRES   REMARKS
NORTH PLATTE   FLURRIES  33  29  85 CALM      30.05F
IMPERIAL       FLURRIES  30  27  88 S6        30.04F WCI  24
LEXINGTON      CLOUDY    31  29  92 CALM      30.09R
MCCOOK         LGT SNOW  31  30  96 SW3       30.07F VSB 3/4
OGALLALA       MIX PCPN  33  33  98 CALM      30.02F
$$

NEZ005>010-023>029-035>040-094-280800-
NORTH CENTRAL NEBRASKA

CITY           SKY/WX    TMP DP  RH WIND       PRES   REMARKS
VALENTINE      CLOUDY    32  28  85 SE3       30.04F
AINSWORTH      CLOUDY    31  29  93 SE3       30.05S
BROKEN BOW     CLOUDY    31  26  82 S5        30.07R WCI  26
O`NEILL        CLOUDY    30  28  92 CALM      30.10S
ORD            CLOUDY    32  27  81 CALM      30.08F
THEDFORD       LGT SNOW  32  31  96 S3        30.04F
$$

NEZ041-046>049-061>064-073>077-083>087-280800-
SOUTH CENTRAL NEBRASKA

CITY           SKY/WX    TMP DP  RH WIND       PRES   REMARKS
GRAND ISLAND   CLOUDY    30  26  85 CALM      30.12F
AURORA         CLOUDY    32  29  91 CALM      30.12S
HASTINGS       CLOUDY    28  26  92 E7        30.10F WCI  21
HEBRON         CLOUDY    31  29  92 N3        30.14S
HOLDREGE       CLOUDY    31  29  92 CALM      30.08F
KEARNEY        CLOUDY    30  28  92 S3        30.10F
YORK           CLOUDY    32  28  86 CALM      30.13S
$$

NEZ011>018-030>034-042>045-280800-
NORTHEAST NEBRASKA

CITY           SKY/WX    TMP DP  RH WIND       PRES   REMARKS
NORFOLK        FLURRIES  28  24  85 NW7       30.12S WCI  21
ALBION         CLOUDY    31  28  87 W3        30.11F
BLAIR          CLOUDY    29  27  94 NW8       30.13S WCI  21
COLUMBUS       CLOUDY    30  26  85 N3        30.15S
FREMONT        CLOUDY    28  27  95 N7        30.15S WCI  21
TEKAMAH        CLOUDY    25  23  92 NW10      30.16S WCI  15
WAYNE          CLOUDY    26  23  90 N6        30.13F WCI  19
$$

NEZ050>053-065>068-078-088>093-280800-
SOUTHEAST NEBRASKA

CITY           SKY/WX    TMP DP  RH WIND       PRES   REMARKS
LINCOLN        CLOUDY    31  27  85 N5        30.16S WCI  26
OMAHA EPPLEY   CLOUDY    30  27  88 N14       30.14S FOG     WCI  19
BEATRICE       CLOUDY    32  30  92 CALM      30.14S
FALLS CITY     CLOUDY    33  29  85 N5        30.13S WCI  29
NEBRASKA CITY  CLOUDY    32  31  97 N5        30.14S FOG     WCI  27
PLATTSMOUTH    CLOUDY    31  31 100 N3        30.13S FOG
$$

NEZ044-045-051>053-067-280800-
OMAHA AREA

CITY           SKY/WX    TMP DP  RH WIND       PRES   REMARKS
OMAHA EPPLEY   CLOUDY    30  27  88 N14       30.14S FOG     WCI  19
BLAIR          CLOUDY    29  27  94 NW8       30.13S WCI  21
FREMONT        CLOUDY    28  27  95 N7        30.15S WCI  21
MILLARD        CLOUDY    32  28  83 NW7       30.15S WCI  26
OFFUTT AFB     CLOUDY    32  28  86 N6        30.14F WCI  26
PLATTSMOUTH    CLOUDY    31  31 100 N3        30.13S FOG
WAHOO          CLOUDY    30  28  92 N5        30.14F WCI  26
$$


 

View Past Reports for Omaha, NE.

Products Courtesy of NOAA-NWS
NWS Information Parsing Script by Ken True at Saratoga Weather - Script by SE Lincoln Weather.